Location: Potomac
(46.8816°N, 113.5795°W)
Time: 10:11:21
(UTC+00:00)

AO-73 - Visible Passes

Search period start: 29 June 2022 00:00
Search period end: 09 July 2022 00:00
Orbit: 579 x 658 km, 97.6° (Epoch: 28 June)

Date Brightness Start Highest point End Pass type
(mag) Time Alt. Az. Time Alt. Az. Time Alt. Az.
30 Jun ? 10:14:31 10° ENE 10:15:20 10° E 10:16:08 10° E visible
01 Jul ? 10:29:35 10° NE 10:32:18 16° E 10:35:00 10° SE visible
02 Jul ? 10:45:40 10° NE 10:49:13 22° E 10:52:46 10° SE visible
03 Jul ? 11:02:02 10° NNE 11:06:06 32° E 11:10:09 10° SSE visible
06 Jul ? 10:18:03 10° ENE 10:19:49 12° E 10:21:34 10° ESE visible
07 Jul ? 10:33:41 10° NE 10:36:44 18° E 10:39:48 10° SE visible
08 Jul ? 10:49:53 10° NE 10:53:39 25° E 10:57:24 10° SSE visible
